Regional Weather Roundup
Issued by NWS Jackson, KY

Home | Current Version | Previous Version | Graphics & Text | Print | Product List | Glossary On
Versions: 1 2 3 4 5 6 7 8 9 10 11 12 13 14 15 16 17 18 19 20 21 22 23 24 25 26 27 28 29 30 31 32 33 34 35 36 37 38 39 40 41 42 43 44 45 46 47 48 49 50
000
ASUS43 KJKL 311510
RWRJKL

EAST KENTUCKY HOURLY WEATHER ROUNDUP
NATIONAL WEATHER SERVICE JACKSON KY
1100 AM EDT WED AUG 31 2016

NOTE: "FAIR" INDICATES FEW OR NO CLOUDS BELOW 12,000 FEET WITH
NO SIGNIFICANT WEATHER AND/OR OBSTRUCTIONS TO VISIBILITY.

* THESE REPORTS ARE NOT UNDER NWS QUALITY CONTROL AND MAY NOT
  REPORT WEATHER SUCH AS PRECIPITATION AND FOG.

KYZ079-080-083-085-087-088-110-112-115-119-120-311600
...EASTERN KENTUCKY...

CITY           SKY/WX    TMP DP  RH WIND       PRES   REMARKS
JACKSON        SUNNY     79  71  76 CALM      30.06R
LONDON         SUNNY     81  69  67 CALM      30.05S
SOMERSET*      SUNNY     79  68  69 CALM      30.05S
MONTICELLO*    SUNNY    N/A N/A N/A VRB3      30.05S
WILLIAMSBURG*  SUNNY     81  72  74 CALM      30.05S
MIDDLESBORO*   SUNNY     76  71  83 CALM      30.06F
HARLAN APT*    SUNNY     79  68  69 CALM      30.07S
PIKE CO APT*     N/A     75  73  92 S3        30.06S
BIG SANDY APT* SUNNY     78  72  82 CALM      30.05S
MOREHEAD APT*  PTSUNNY   81  66  61 CALM      30.05F
$$

KYZ035-036-041-042-044-050-067-078-099-311600
...CENTRAL KENTUCKY...

CITY           SKY/WX    TMP DP  RH WIND       PRES   REMARKS
MT STERLING*   SUNNY     82  72  69 CALM      30.04F
FLEMING/MASON* SUNNY     81  68  65 CALM      30.04S
DANVILLE*      SUNNY     82  70  65 W5        30.05S
LEXINGTON      SUNNY     85  69  58 W8        30.03S
FRANKFORT      SUNNY     85  70  60 W5        30.01S
LOUISVILLE     LGT RAIN  79  72  79 N6        30.01R
LEBANON*         N/A     82  73  74 CALM      30.03F
GLASGOW*       SUNNY     84  73  69 CALM      30.02S
BOWLING GREEN  SUNNY     86  74  67 CALM      30.01F HX  94
$$

KYZ091>093-OHZ055-061-077-WVZ005-015-034-035-042-311600
...SOUTHERN OHIO/WEST VIRGINIA...

CITY           SKY/WX    TMP DP  RH WIND       PRES   REMARKS
COVINGTON      MOSUNNY   81  72  74 VRB3      30.03S
COLUMBUS       PTSUNNY   80  67  64 VRB6      30.00S
DAYTON         MOSUNNY   79  68  69 W6        30.03F
WILMINGTON     PTSUNNY   78  68  71 VRB3      30.02F
HUNTINGTON     SUNNY     81  69  67 CALM      30.01F
CHARLESTON     MOSUNNY   81  69  67 W3        30.02F
PINEVILLE*     SUNNY     81  66  60 MISG      30.12F
BECKLEY        MOSUNNY   78  67  68 MISG      30.10F
BLUEFIELD      MOSUNNY   75  64  68 W7        30.14S
LOGAN CO APT*    N/A     79  72  78 CALM      30.05S
$$

VAZ002-007-008-TNZ017-027-036-066-071-311600
...SOUTHWEST VIRGINIA/EAST TENNESSEE...

CITY           SKY/WX    TMP DP  RH WIND       PRES   REMARKS
WISE*          SUNNY     81  59  47 W3        30.14R
JONESVILLE*      N/A     81  66  61 CALM      30.08S
ABINGDON*      SUNNY     81  67  62 NW5       30.10S
BRISTOL        SUNNY     81  68  64 CALM      30.07S
MORRISTOWN*    SUNNY     82  70  65 CALM      30.04F
SEVIERVILLE*   SUNNY     82  64  54 CALM      30.03F
KNOXVILLE      MOSUNNY   84  66  54 SW3       30.03S
OAK RIDGE      SUNNY     84  68  58 CALM      30.04F
CROSSVILLE     SUNNY     81  67  62 SW7       30.08F
NASHVILLE      SUNNY     86  72  62 CALM      30.02R HX  92
$$

...KEY TO REMARKS...
VSB - VISIBILITY IN MILES
WCI - WIND CHILL INDEX
HX  - HEAT INDEX

$$



USA.gov is the U.S. government's official web portal to all federal, state and local government web resources and services.